Wind_Speed
40 42 43 44 44 45 47 48 48 49 50 51 52 52 53 53 54 54 54 54 55 55 55 55 55 55 55 56 56 57 58 58 57 57 58 59 59 60 59 58 57 55 54
42 44 45 46 47 49 50 51 52 53 53 54 54 54 55 55 55 55 55 54 54 54 54 54 54 54 54 54 55 55 56 56 56 55 55 55 55 55 54 52 50 49 47
44 45 47 48 50 51 53 54 55 55 55 55 55 55 55 55 55 54 54 53 53 52 52 52 52 52 53 53 53 53 53 53 53 52 51 50 50 49 47 45 43 41 39
46 47 49 50 52 53 54 55 56 56 56 56 56 55 55 54 53 53 52 52 51 51 51 51 51 51 51 51 51 50 50 50 49 48 47 46 44 42 40 38 35 34 33
48 49 51 52 53 54 54 55 55 55 55 55 55 54 54 53 52 51 50 50 49 49 49 50 50 50 49 49 48 47 47 47 45 44 41 39 37 35 33 31 30 29 30
49 50 51 51 52 53 53 54 54 54 54 54 53 53 52 51 50 49 48 48 48 48 49 49 48 47 46 46 45 44 43 41 39 36 34 32 30 28 27 27 27 27 27
49 49 49 50 51 52 52 52 53 52 52 51 51 50 49 49 49 49 49 49 48 48 48 47 46 45 44 43 41 39 37 34 31 29 27 25 24 25 25 25 26 26 26
47 48 48 49 49 50 50 50 49 49 49 48 48 48 49 49 49 49 48 48 47 47 46 44 43 41 40 37 34 32 30 27 24 22 21 21 22 22 23 23 24 24 24
46 46 46 46 47 47 47 46 46 46 47 47 47 47 48 48 48 48 48 47 45 43 41 39 37 35 32 30 28 26 24 21 18 17 17 19 20 20 20 21 22 23 23
43 44 44 44 44 44 44 44 44 45 45 46 46 47 47 47 46 45 44 42 39 37 35 32 29 27 25 24 22 19 17 15 14 14 15 16 17 18 19 19 21 22 22
41 41 41 42 42 42 42 43 43 44 44 45 45 45 45 44 42 39 37 34 32 29 27 24 22 20 18 16 14 12 11 11 11 12 13 14 15 17 17 18 20 21 21
38 38 39 39 40 41 41 42 42 43 43 42 42 41 39 36 33 30 27 25 23 21 19 17 15 13 12 10 9 8 8 8 9 10 11 12 14 16 16 18 19 20 20
35 36 37 39 39 40 40 40 40 39 38 37 35 32 29 26 23 21 19 17 16 14 12 10 9 7 6 5 5 4 5 6 8 9 10 12 13 15 15 17 18 19 19
35 36 37 38 38 38 37 36 34 33 30 28 26 23 20 18 16 15 14 12 10 8 7 5 4 3 2 2 2 4 5 6 7 8 9 11 12 14 15 16 18 18 18
35 35 36 35 34 31 30 28 27 25 23 20 18 16 14 13 11 10 8 6 5 3 1 0 1 2 3 3 4 5 6 6 7 8 9 11 12 13 15 16 17 18 18
32 31 30 28 26 24 23 21 20 18 16 14 12 11 9 8 6 5 3 1 1 2 3 4 4 5 5 6 6 6 7 8 8 9 10 11 13 14 15 16 17 17 18
27 26 24 21 19 18 16 15 13 12 10 9 8 6 5 3 2 2 3 4 5 6 6 6 7 8 8 8 8 9 9 10 10 11 11 12 14 15 16 16 17 17 18
21 18 16 15 13 12 11 10 9 8 7 6 5 5 5 5 5 6 6 7 8 8 8 9 9 10 10 10 10 11 11 12 12 13 13 14 15 16 17 18 18 18 18
15 14 13 11 10 9 9 8 8 8 7 7 8 8 8 8 8 8 9 9 9 9 10 11 11 11 11 12 13 13 13 14 14 15 15 16 17 18 19 19 20 20 19
13 12 10 10 9 8 8 8 8 8 9 9 9 10 10 10 10 11 11 11 11 11 12 12 12 13 13 14 14 14 15 15 16 16 16 17 18 19 20 20 21 21 20
12 11 10 10 10 9 9 9 10 10 11 11 11 12 12 12 12 12 12 12 13 13 13 13 14 14 14 15 15 15 15 15 16 16 17 17 18 19 20 21 21 21 21
12 12 12 12 12 11 11 12 12 12 12 12 13 14 14 14 14 14 14 14 14 14 14 14 14 14 14 14 14 14 14 15 15 16 16 17 17 18 19 20 20 20 20
13 13 13 13 13 13 13 13 13 13 13 13 14 14 15 15 15 15 15 15 14 14 14 14 14 14 14 14 13 14 14 14 14 15 15 15 16 17 17 18 19 19 19
14 14 14 14 14 14 13 13 13 13 14 14 14 14 15 15 15 15 15 14 14 14 13 13 13 13 13 13 13 13 13 13 14 14 15 16 16 17 17 17 18 18 18
14 14 14 14 14 14 14 14 14 14 14 14 15 15 15 15 14 14 14 14 14 13 13 13 12 12 12 12 13 13 13 14 14 15 15 16 17 17 18 18 18 18 18
15 15 15 14 14 14 14 14 14 14 14 14 14 14 14 14 14 14 14 14 13 13 13 12 12 12 12 12 13 13 14 14 15 15 16 17 17 18 18 18 19 18 18
Wind_Direction
273 276 280 283 286 289 292 294 296 296 297 297 297 297 296 296 295 294 293 293 292 291 290 290 289 290 290 291 291 291 291 291 291 291 291 291 291 291 291 291 290 289 288
276 279 282 285 287 290 292 294 295 296 296 296 296 296 296 295 295 294 293 293 292 291 290 290 290 291 291 291 292 292 292 292 293 293 293 293 293 293 293 293 292 291 290
280 282 284 285 288 289 291 292 294 294 295 295 295 295 295 295 294 293 293 292 291 290 290 290 291 291 291 292 292 293 293 293 294 295 295 296 296 296 296 295 295 293 292
282 284 285 286 287 289 291 292 292 293 294 294 295 295 294 294 293 293 292 292 291 291 290 290 291 292 293 293 293 294 295 295 297 298 299 298 298 298 298 298 297 296 295
283 284 285 286 288 289 290 291 292 293 293 294 294 294 293 293 293 292 292 292 292 291 291 292 293 294 294 294 295 295 296 297 298 299 300 300 300 301 301 301 301 300 300
284 285 287 288 289 289 290 291 292 292 293 293 293 292 293 293 293 293 293 293 293 293 293 294 294 295 295 295 295 296 297 298 299 300 300 301 302 303 304 305 305 306 305
286 287 288 288 289 290 290 291 292 292 292 292 292 292 292 293 293 293 293 294 294 294 295 295 295 295 295 296 296 297 298 298 299 301 302 303 303 304 306 308 310 311 310
288 288 289 289 290 290 291 291 291 291 291 291 292 292 293 293 294 294 294 294 294 295 295 295 295 295 295 296 297 298 298 299 301 302 303 304 305 307 310 313 314 314 314
289 289 290 290 290 291 291 291 291 291 292 292 293 293 294 294 295 295 295 295 295 294 294 294 295 295 295 295 296 296 297 299 301 303 305 308 311 314 316 318 320 320 319
291 291 291 291 291 291 292 292 292 293 293 294 294 295 295 295 295 295 295 295 295 294 294 294 293 293 293 294 294 295 297 300 304 307 311 315 319 321 323 325 327 327 325
292 292 293 293 293 293 294 294 295 295 295 295 296 296 296 295 295 294 294 294 294 294 294 293 291 291 292 292 292 294 298 303 308 314 319 324 329 332 332 333 334 335 334
293 294 294 294 295 295 296 296 297 297 297 297 297 297 296 296 296 296 295 295 295 294 293 292 291 291 290 290 293 297 304 312 319 325 330 335 339 341 342 342 342 343 344
296 296 297 297 298 298 299 299 299 299 299 299 299 299 299 298 298 297 297 297 296 294 293 292 292 292 293 297 302 314 324 330 336 340 343 345 347 349 352 352 352 352 353
300 300 300 300 301 301 301 302 302 303 303 303 302 302 301 301 300 299 300 299 296 295 294 294 296 304 321 341 353 354 352 351 354 355 355 356 357 358 0 2 3 4 5
303 304 304 304 305 305 305 306 306 306 307 306 305 305 304 304 303 303 303 302 302 306 307 36 70 70 69 57 41 28 21 16 12 10 9 10 11 12 11 12 13 15 17
308 309 310 310 310 310 311 312 313 314 313 313 312 311 310 310 311 313 318 339 48 94 104 98 89 88 83 70 57 46 39 34 29 24 23 24 23 22 20 20 22 23 24
315 315 315 316 317 318 320 321 324 326 328 328 328 331 336 349 28 68 85 94 103 104 99 95 94 91 82 72 63 57 52 47 43 39 38 35 31 29 29 28 29 30 31
325 326 327 328 330 332 335 339 345 353 359 8 17 34 56 73 84 91 96 101 102 98 96 96 94 88 82 76 71 66 62 57 54 51 48 45 41 38 37 35 34 34 35
342 342 342 344 346 350 356 4 14 24 35 46 58 68 76 82 87 94 99 98 96 95 97 96 92 88 85 82 77 72 67 64 61 58 55 51 47 44 42 41 39 39 39
354 357 359 3 9 18 26 33 42 49 58 65 72 77 81 85 90 95 97 96 95 95 96 94 91 89 87 83 78 73 69 66 63 59 55 51 48 45 44 43 42 41 42
13 17 22 30 37 42 48 55 60 67 71 75 77 81 85 87 90 93 94 95 96 96 95 93 90 88 86 82 78 73 69 65 61 57 53 49 47 45 43 42 42 42 42
31 36 43 48 53 56 60 66 71 74 76 78 80 83 85 87 89 92 93 94 95 94 92 91 89 86 83 80 75 71 66 61 56 52 48 45 42 41 40 39 39 40 41
43 49 55 59 61 63 66 70 74 76 78 80 83 85 86 87 89 91 92 92 92 91 91 89 86 83 80 75 70 64 59 55 51 48 43 39 37 36 36 35 36 37 38
53 58 61 63 64 66 69 73 75 78 80 82 85 87 89 90 90 90 90 90 90 90 89 87 84 80 75 69 64 59 54 51 48 45 42 40 38 36 35 34 34 35 37
57 61 63 64 65 66 69 72 76 78 81 83 86 88 90 90 90 90 89 89 89 88 86 83 80 76 71 66 61 57 53 50 48 45 44 43 41 39 37 36 36 36 37
61 63 65 65 65 66 69 72 76 79 82 84 86 88 88 88 89 89 89 88 88 86 83 80 77 73 69 65 61 58 56 55 52 50 47 45 44 43 41 40 40 41 41
Height
5791 5789 5786 5783 5780 5777 5773 5770 5766 5763 5759 5756 5752 5748 5743 5739 5735 5731 5727 5722 5718 5713 5708 5703 5699 5694 5689 5684 5680 5674 5669 5663 5659 5654 5646 5640 5634 5628 5622 5616 5611 5606 5601
5781 5778 5775 5772 5769 5765 5761 5758 5754 5750 5746 5742 5737 5733 5729 5724 5720 5716 5711 5707 5702 5697 5693 5688 5684 5679 5675 5670 5665 5659 5654 5648 5643 5638 5632 5625 5619 5613 5607 5601 5595 5590 5585
5769 5767 5764 5760 5757 5753 5749 5745 5741 5736 5732 5727 5723 5718 5714 5709 5705 5700 5696 5691 5687 5683 5678 5674 5669 5665 5661 5656 5650 5645 5640 5634 5629 5624 5618 5611 5605 5598 5593 5588 5582 5577 5573
5757 5754 5751 5748 5744 5740 5736 5731 5727 5722 5717 5713 5708 5703 5699 5694 5690 5685 5681 5677 5673 5668 5664 5660 5656 5651 5647 5642 5637 5631 5626 5621 5615 5610 5604 5598 5592 5587 5581 5577 5572 5567 5563
5745 5742 5738 5735 5730 5726 5722 5717 5712 5708 5703 5698 5693 5688 5684 5680 5675 5671 5667 5663 5659 5654 5650 5646 5642 5638 5633 5628 5623 5619 5614 5609 5603 5598 5593 5587 5582 5577 5572 5568 5564 5559 5554
5732 5729 5725 5721 5717 5712 5708 5703 5698 5693 5688 5684 5679 5674 5670 5666 5661 5657 5653 5649 5645 5641 5636 5632 5628 5624 5620 5615 5611 5607 5602 5597 5593 5588 5583 5579 5574 5570 5565 5561 5556 5552 5548
5718 5715 5711 5707 5703 5698 5694 5689 5684 5679 5674 5670 5665 5660 5656 5652 5648 5644 5640 5636 5632 5627 5623 5618 5614 5611 5607 5603 5599 5596 5592 5587 5584 5580 5576 5572 5568 5564 5560 5555 5550 5545 5541
5705 5701 5697 5693 5689 5685 5680 5675 5670 5666 5661 5656 5652 5647 5643 5639 5635 5631 5626 5622 5618 5614 5610 5606 5602 5598 5595 5592 5589 5586 5582 5579 5576 5573 5570 5567 5563 5559 5554 5550 5545 5540 5535
5693 5688 5684 5680 5676 5671 5667 5662 5657 5653 5648 5643 5639 5634 5630 5626 5621 5617 5613 5609 5605 5602 5598 5594 5591 5588 5586 5583 5580 5578 5575 5573 5571 5568 5566 5562 5558 5554 5550 5545 5540 5535 5531
5680 5676 5672 5668 5663 5658 5654 5649 5644 5640 5635 5630 5626 5621 5616 5612 5608 5604 5600 5596 5593 5590 5587 5584 5582 5580 5578 5576 5574 5572 5571 5569 5567 5565 5562 5559 5555 5551 5546 5542 5537 5532 5526
5669 5665 5660 5656 5651 5646 5642 5637 5632 5627 5623 5618 5613 5609 5604 5600 5596 5592 5589 5586 5583 5581 5578 5576 5575 5573 5572 5571 5569 5568 5567 5566 5564 5562 5559 5556 5552 5548 5544 5539 5534 5529 5523
5659 5654 5650 5645 5640 5635 5630 5625 5620 5615 5611 5606 5601 5597 5593 5589 5585 5582 5580 5578 5575 5574 5572 5570 5570 5569 5568 5567 5566 5566 5565 5563 5562 5560 5557 5554 5550 5546 5542 5537 5532 5527 5522
5649 5644 5639 5634 5629 5624 5619 5614 5609 5604 5599 5595 5591 5587 5583 5581 5578 5576 5574 5572 5570 5569 5568 5567 5566 5566 5566 5565 5565 5564 5563 5562 5560 5558 5556 5553 5549 5545 5541 5536 5532 5526 5521
5640 5635 5629 5624 5619 5614 5608 5604 5599 5595 5590 5586 5583 5580 5577 5575 5573 5571 5570 5569 5567 5566 5566 5565 5565 5565 5564 5564 5564 5563 5562 5561 5559 5557 5555 5552 5549 5545 5541 5536 5532 5526 5521
5631 5625 5619 5614 5609 5604 5600 5595 5591 5587 5584 5580 5578 5575 5573 5571 5570 5568 5567 5566 5566 5565 5565 5565 5565 5565 5565 5564 5564 5563 5562 5561 5559 5557 5555 5552 5549 5545 5541 5537 5532 5527 5522
5622 5616 5611 5606 5602 5597 5593 5590 5586 5583 5579 5576 5574 5572 5570 5569 5568 5567 5566 5566 5566 5565 5566 5566 5566 5566 5566 5565 5565 5564 5563 5561 5560 5558 5555 5553 5550 5546 5542 5538 5534 5529 5524
5615 5609 5605 5601 5597 5593 5590 5586 5583 5580 5577 5575 5572 5571 5569 5568 5568 5568 5567 5567 5567 5567 5567 5567 5567 5567 5567 5567 5566 5565 5564 5563 5561 5559 5557 5554 5551 5548 5544 5540 5536 5531 5527
5609 5605 5601 5597 5594 5591 5588 5585 5582 5579 5577 5574 5572 5571 5570 5570 5569 5569 5569 5569 5570 5569 5569 5569 5570 5570 5570 5569 5568 5567 5566 5565 5563 5561 5559 5556 5553 5550 5546 5542 5538 5534 5530
5607 5603 5599 5596 5593 5590 5587 5585 5582 5580 5578 5576 5574 5573 5573 5572 5572 5572 5572 5572 5572 5572 5572 5572 5572 5573 5572 5572 5571 5570 5569 5568 5566 5564 5562 5559 5556 5553 5549 5546 5542 5538 5533
5606 5602 5599 5596 5593 5591 5588 5586 5584 5582 5580 5578 5577 5576 5576 5576 5575 5575 5575 5575 5575 5575 5576 5576 5576 5576 5576 5575 5575 5574 5573 5571 5570 5568 5565 5563 5560 5557 5553 5549 5546 5542 5538
5606 5603 5600 5597 5595 5592 5590 5588 5586 5585 5583 5582 5581 5580 5580 5579 5579 5579 5579 5579 5579 5579 5580 5580 5580 5580 5580 5579 5579 5578 5577 5575 5573 5571 5569 5566 5563 5560 5557 5553 5550 5546 5542
5607 5605 5602 5600 5597 5595 5593 5592 5590 5589 5587 5586 5585 5585 5584 5584 5583 5583 5583 5583 5584 5584 5584 5584 5585 5584 5584 5584 5583 5582 5580 5579 5577 5575 5572 5570 5567 5564 5561 5557 5554 5550 5547
5610 5607 5605 5603 5601 5599 5597 5596 5594 5593 5592 5591 5590 5589 5589 5588 5588 5588 5588 5588 5588 5589 5589 5589 5589 5589 5588 5588 5587 5586 5584 5582 5580 5578 5576 5573 5570 5567 5564 5561 5558 5554 5551
5613 5611 5609 5607 5605 5603 5601 5600 5598 5597 5596 5595 5594 5594 5593 5593 5593 5593 5593 5593 5593 5593 5593 5593 5593 5593 5592 5591 5590 5589 5587 5585 5583 5581 5579 5576 5573 5570 5567 5564 5561 5558 5555
5617 5615 5613 5611 5609 5608 5606 5604 5603 5602 5601 5600 5599 5599 5598 5598 5598 5598 5598 5598 5598 5598 5598 5597 5597 5597 5596 5595 5594 5592 5590 5589 5586 5584 5582 5579 5577 5574 5570 5567 5564 5561 5558
5621 5619 5618 5616 5614 5612 5610 5609 5607 5606 5605 5605 5604 5604 5603 5603 5603 5603 5603 5602 5602 5602 5602 5601 5601 5600 5599 5598 5597 5595 5594 5592 5590 5588 5585 5583 5580 5577 5574 5571 5568 5565 5562